Date String (YYYY-MM-DD hh:mm:ss) UTC,Instrument flags,absolute air pressure of the measurement (hPa),sample flow rate (lpm),inlet stack bypass flow (lpm),air temperature of the measurement (°C),ambient temperature measured by the external sensor (°C),aerosol sample conditioner tube jacket temperature (°C),OPC LED temperature (°C),internal box temperature (°C),relative humidity of the measurement (%),span deviation,mass concentration of particles derived from Lorenz-Mie calculation of OPC scattering (μg/m³),mass concentration of particles derived from Lorenz-Mie calculation of OPC scattering (μg/m³),mass concentration of particles derived from Lorenz-Mie calculation of OPC scattering (μg/m³)
DateTimeUTC,F1_M11,P_M11,Q1_M11,Q2_M11,T1_M11,T2_M11,T3_M11,T4_M11,T5_M11,U1_M11,ZSPAN_M11,X0_M11,X2_M11,X1_M11
2023-06-05 03:00:00,SystemResetWarning,0835.0,5.01,000.00,029.9,028.4,000.0,038.2,031.5,33.5,0000.0,0006.06,0003.79,0003.50
2023-06-05 03:01:00,SystemResetWarning,0835.0,5.01,000.00,029.9,028.4,000.0,038.2,031.5,33.5,0000.0,0006.30,0003.80,0003.52
2023-06-05 03:02:00,SystemResetWarning,0835.0,5.00,000.00,029.9,028.4,000.0,038.2,031.5,33.4,0000.0,0006.17,0003.83,0003.56
2023-06-05 03:03:00,SystemResetWarning,0835.0,5.00,000.00,029.9,028.4,000.0,038.2,031.5,33.4,0000.0,0006.10,0003.86,0003.60
2023-06-05 03:04:00,SystemResetWarning,0835.0,5.00,000.00,029.9,028.5,000.0,038.2,031.5,33.4,0000.0,0006.47,0003.87,0003.62
2023-06-05 03:05:00,SystemResetWarning,0835.0,5.00,000.00,029.9,028.5,000.0,038.2,031.6,33.3,0000.0,0007.05,0003.89,0003.65
2023-06-05 03:06:00,SystemResetWarning,0835.0,5.00,000.00,030.0,028.5,000.0,038.2,031.6,33.2,0000.0,0007.21,0003.93,0003.67
2023-06-05 03:07:00,SystemResetWarning,0835.0,5.00,000.00,030.0,028.5,000.0,038.3,031.6,33.2,0000.0,0007.22,0003.95,0003.70
2023-06-05 03:08:00,SystemResetWarning,0835.1,4.99,000.00,030.0,028.5,000.0,038.3,031.6,33.1,0000.0,0007.21,0003.97,0003.73
2023-06-05 03:09:00,SystemResetWarning,0835.1,5.00,000.00,030.0,028.6,000.0,038.3,031.6,33.0,0000.0,0007.39,0004.02,0003.78
2023-06-05 03:10:00,SystemResetWarning,0835.1,5.00,000.00,030.0,028.6,000.0,038.3,031.7,32.9,0000.0,0007.45,0004.08,0003.82
2023-06-05 03:11:00,SystemResetWarning,0835.1,5.00,000.00,030.0,028.6,000.0,038.3,031.7,32.9,0000.0,0007.45,0004.12,0003.87
2023-06-05 03:12:00,SystemResetWarning,0835.1,5.00,000.00,030.1,028.6,000.0,038.3,031.7,32.8,0002.1,0007.32,0004.15,0003.91
2023-06-05 03:13:00,SystemResetWarning,0835.1,5.00,000.00,030.1,028.6,000.0,038.4,031.7,32.7,0001.7,0007.51,0004.19,0003.92
2023-06-05 03:14:00,SystemResetWarning,0835.2,4.99,000.00,030.1,028.7,000.0,038.4,031.7,32.7,0000.1,0007.48,0004.20,0003.94
2023-06-05 03:15:00,SystemResetWarning,0835.2,5.00,000.00,030.1,028.7,000.0,038.4,031.7,32.7,0000.0,0007.21,0004.25,0003.97
2023-06-05 03:16:00,SystemResetWarning,0835.2,5.00,000.00,030.1,028.7,000.0,038.4,031.7,32.7,0000.0,0006.83,0004.27,0004.00
2023-06-05 03:17:00,SystemResetWarning,0835.2,4.99,000.00,030.1,028.7,000.0,038.4,031.7,32.6,0001.0,0006.91,0004.30,0004.02
2023-06-05 03:18:00,SystemResetWarning,0835.2,5.00,000.00,030.1,028.7,000.0,038.4,031.8,32.6,0001.5,0006.94,0004.31,0004.04
2023-06-05 03:19:00,SystemResetWarning,0835.2,5.00,000.00,030.1,028.7,000.0,038.4,031.8,32.5,0001.6,0007.09,0004.33,0004.04
2023-06-05 03:20:00,SystemResetWarning,0835.2,5.01,000.00,030.2,028.7,000.0,038.4,031.8,32.4,0001.4,0007.15,0004.34,0004.02
2023-06-05 03:21:00,SystemResetWarning,0835.2,5.00,000.00,030.2,028.7,000.0,038.5,031.8,32.4,0001.3,0007.30,0004.32,0004.01
2023-06-05 03:22:00,SystemResetWarning,0835.2,5.01,000.00,030.2,028.7,000.0,038.5,031.8,32.2,0001.5,0007.30,0004.31,0003.98
2023-06-05 03:23:00,SystemResetWarning,0835.2,5.00,000.00,030.2,028.7,000.0,038.5,031.8,32.0,0002.0,0007.31,0004.29,0003.95
2023-06-05 03:24:00,SystemResetWarning,0835.2,5.00,000.00,030.2,028.8,000.0,038.5,031.8,31.7,0002.1,0006.90,0004.21,0003.89
2023-06-05 03:25:00,SystemResetWarning,0835.2,5.00,000.00,030.2,028.8,000.0,038.5,031.8,31.3,0002.1,0006.80,0004.14,0003.82
2023-06-05 03:26:00,SystemResetWarning,0835.2,5.00,000.00,030.2,028.8,000.0,038.5,031.8,31.2,0002.0,0006.49,0004.02,0003.73
2023-06-05 03:27:00,SystemResetWarning,0835.2,5.00,000.00,030.2,028.8,000.0,038.5,031.8,31.2,0002.1,0006.36,0003.93,0003.65
2023-06-05 03:28:00,SystemResetWarning,0835.3,4.99,000.00,030.2,028.8,000.0,038.5,031.8,31.4,0000.5,0006.25,0003.84,0003.57
2023-06-05 03:29:00,SystemResetWarning,0835.2,5.00,000.00,030.2,028.8,000.0,038.5,031.9,31.7,0000.0,0006.15,0003.81,0003.55
2023-06-05 03:30:00,SystemResetWarning,0835.3,5.00,000.00,030.2,028.8,000.0,038.6,031.9,31.8,0000.0,0005.97,0003.77,0003.53
2023-06-05 03:31:00,SystemResetWarning,0835.3,5.00,000.00,030.3,028.8,000.0,038.6,031.9,31.8,0000.0,0005.78,0003.75,0003.54
2023-06-05 03:32:00,SystemResetWarning,0835.3,5.00,000.00,030.3,028.8,000.0,038.6,031.9,31.8,0000.0,0005.53,0003.74,0003.54
2023-06-05 03:33:00,SystemResetWarning,0835.3,5.00,000.00,030.3,028.8,000.0,038.6,031.9,31.8,0000.0,0005.44,0003.73,0003.54
2023-06-05 03:34:00,SystemResetWarning,0835.3,5.01,000.00,030.3,028.8,000.0,038.6,031.9,31.8,0000.0,0006.03,0003.75,0003.56
2023-06-05 03:35:00,SystemResetWarning,0835.2,5.00,000.00,030.3,028.8,000.0,038.6,031.9,31.8,0000.0,0006.18,0003.80,0003.60
2023-06-05 03:36:00,SystemResetWarning,0835.2,5.00,000.00,030.3,028.8,000.0,038.6,031.9,31.7,0000.0,0006.16,0003.84,0003.64
2023-06-05 03:37:00,SystemResetWarning,0835.2,5.00,000.00,030.3,028.9,000.0,038.6,031.9,31.7,0000.0,0006.59,0003.93,0003.71
2023-06-05 03:38:00,SystemResetWarning,0835.2,5.00,000.00,030.3,028.9,000.0,038.6,031.9,31.7,0000.0,0006.51,0003.99,0003.75
2023-06-05 03:39:00,SystemResetWarning,0835.2,4.99,000.00,030.3,028.9,000.0,038.7,031.9,31.6,0000.0,0006.41,0004.03,0003.78
2023-06-05 03:40:00,SystemResetWarning,0835.2,5.00,000.00,030.3,028.9,000.0,038.7,031.9,31.6,0000.0,0006.61,0004.06,0003.77
2023-06-05 03:41:00,SystemResetWarning,0835.2,5.00,000.00,030.3,028.9,000.0,038.7,032.0,31.6,0001.9,0006.68,0004.05,0003.75
2023-06-05 03:42:00,SystemResetWarning,0835.3,5.01,000.00,030.3,028.9,000.0,038.7,032.0,31.5,0002.0,0006.69,0004.04,0003.73
2023-06-05 03:43:00,SystemResetWarning,0835.3,5.01,000.00,030.3,028.9,000.0,038.7,032.0,31.7,0001.9,0006.63,0004.01,0003.71
2023-06-05 03:44:00,SystemResetWarning,0835.3,5.00,000.00,030.3,028.9,000.0,038.7,032.0,31.9,0001.3,0006.63,0004.01,0003.72
2023-06-05 03:45:00,SystemResetWarning,0835.3,5.01,000.00,030.3,028.9,000.0,038.7,032.0,31.8,0001.2,0006.04,0003.99,0003.72
2023-06-05 03:46:00,SystemResetWarning,0835.3,5.00,000.00,030.3,028.9,000.0,038.7,032.0,31.8,0000.8,0005.97,0003.97,0003.70
2023-06-05 03:47:00,SystemResetWarning,0835.3,5.00,000.00,030.3,028.9,000.0,038.7,032.0,31.8,0001.1,0005.97,0003.96,0003.68
2023-06-05 03:48:00,SystemResetWarning,0835.2,5.00,000.00,030.3,028.9,000.0,038.7,032.0,31.8,0000.1,0005.68,0003.90,0003.65
2023-06-05 03:49:00,SystemResetWarning,0835.2,4.99,000.00,030.3,028.9,000.0,038.7,032.0,31.9,0000.1,0005.59,0003.88,0003.65
2023-06-05 03:50:00,SystemResetWarning,0835.2,4.99,000.00,030.3,028.9,000.0,038.7,032.0,31.8,0000.0,0005.64,0003.87,0003.64
2023-06-05 03:51:00,SystemResetWarning,0835.2,5.00,000.00,030.3,028.9,000.0,038.7,032.0,31.8,0000.0,0005.47,0003.83,0003.64
2023-06-05 03:52:00,SystemResetWarning,0835.2,5.00,000.00,030.4,028.9,000.0,038.7,032.0,31.8,0000.0,0005.28,0003.79,0003.61
2023-06-05 03:53:00,SystemResetWarning,0835.2,5.00,000.00,030.4,028.9,000.0,038.7,032.0,31.8,0000.0,0005.21,0003.77,0003.60
2023-06-05 03:54:00,SystemResetWarning,0835.3,5.00,000.00,030.4,028.9,000.0,038.7,032.0,31.7,0000.0,0005.30,0003.78,0003.59
2023-06-05 03:55:00,SystemResetWarning,0835.3,5.00,000.00,030.4,028.9,000.0,038.7,032.0,31.7,0000.0,0005.22,0003.74,0003.54
2023-06-05 03:56:00,SystemResetWarning,0835.3,4.99,000.00,030.4,028.9,000.0,038.7,032.0,31.6,0000.0,0005.08,0003.69,0003.50
2023-06-05 03:57:00,SystemResetWarning,0835.3,4.99,000.00,030.4,028.9,000.0,038.7,032.0,31.6,0000.0,0005.00,0003.68,0003.49
2023-06-05 03:58:00,SystemResetWarning,0835.3,5.00,000.00,030.4,028.9,000.0,038.7,032.0,31.5,0000.1,0005.04,0003.69,0003.50
2023-06-05 03:59:00,SystemResetWarning,0835.3,5.00,000.00,030.4,028.9,000.0,038.7,032.0,31.4,0001.5,0005.04,0003.70,0003.50
